Location: Unspecified
(0.0000°N, 0.0000°E)
Time: 14:32:50
(UTC+00:00)

AAUSAT3 - Pass Details

Date: 11 August 2024
Orbit: 756 x 773 km, 98.4° (Epoch: 17 September)

Event Time Altitude Azimuth Distance (km) Brightness Sun altitude
Rises 05:40:01 0° 155° (SSE) 3,235 ? -6.1°
Reaches altitude 10° 05:42:26 10° 149° (SSE) 2,304 ? -5.5°
Maximum altitude 05:47:13 43° 78° (ENE) 1,064 ? -4.3°
Drops below altitude 10° 05:51:58 10° 7° (N) 2,283 ? -3.2°
Sets 05:54:21 0° 1° (N) 3,204 ? -2.6°
